Terug naar catalogus

STARLINK-32784

ActiefCommunicatieVLEO
NORAD 62607·PAYLOAD·🇺🇸 United States

Gelanceerd Jan 13, 2025 vanaf Cape Canaveral Space Force Station

Loading…

Volgende Passages (komende 24 uur)

TLE

VersSource: CelesTrak SupGP

Epoch: Sep 14, 2026, 21:53 UTC

1 62607C 25008W   26257.91229167  .00110880  00000+0  82989-3 0  2578
2 62607  42.9826 250.3680 0026996 116.2847  42.9714 15.71136196    17

Volg STARLINK-32784 in realtime met AllMySat

Download on the App Store